QPF
0.01 0.01 0.01 0.01 0.01 0.01 0.01 0.01 0.01 0.01 0.01 0.01 0.00 0.00 0.01 0.01 0.01 0.01 0.01 0.01 0.02 0.03 0.04 0.04 0.04 0.04 0.03 0.03 0.03 0.01 0.02 0.05 0.05 0.04 0.04 0.02 0.02 0.01 0.02 0.02 0.01 0.01 0.00 0.00
0.01 0.00 0.01 0.01 0.02 0.02 0.01 0.01 0.01 0.01 0.01 0.01 0.01 0.00 0.00 0.01 0.01 0.02 0.02 0.02 0.02 0.03 0.03 0.04 0.04 0.05 0.04 0.03 0.02 0.01 0.01 0.01 0.03 0.04 0.04 0.02 0.02 0.02 0.02 0.01 0.01 0.01 0.01 0.01
0.01 0.01 0.01 0.02 0.02 0.02 0.01 0.01 0.01 0.01 0.01 0.01 0.01 0.01 0.01 0.01 0.02 0.05 0.04 0.03 0.03 0.03 0.03 0.04 0.04 0.05 0.04 0.03 0.02 0.01 0.01 0.01 0.01 0.02 0.02 0.03 0.01 0.02 0.02 0.01 0.01 0.01 0.01 0.01
0.01 0.01 0.01 0.02 0.02 0.02 0.01 0.01 0.01 0.01 0.01 0.01 0.01 0.01 0.01 0.01 0.01 0.02 0.05 0.03 0.03 0.03 0.03 0.03 0.03 0.03 0.03 0.02 0.01 0.01 0.01 0.01 0.01 0.01 0.01 0.02 0.02 0.02 0.02 0.01 0.01 0.01 0.01 0.01
0.01 0.00 0.01 0.02 0.02 0.02 0.01 0.02 0.01 0.01 0.00 0.00 0.01 0.01 0.01 0.01 0.01 0.01 0.04 0.05 0.03 0.02 0.02 0.02 0.02 0.02 0.02 0.01 0.01 0.01 0.01 0.01 0.01 0.01 0.01 0.01 0.02 0.03 0.03 0.01 0.01 0.01 0.01 0.01
0.00 0.01 0.01 0.01 0.01 0.01 0.01 0.01 0.01 0.00 0.00 0.00 0.01 0.01 0.01 0.01 0.01 0.01 0.01 0.01 0.01 0.01 0.01 0.01 0.02 0.02 0.01 0.01 0.01 0.01 0.01 0.01 0.02 0.02 0.01 0.01 0.01 0.02 0.03 0.02 0.01 0.01 0.01 0.01
0.01 0.01 0.01 0.01 0.01 0.01 0.01 0.01 0.00 0.00 0.01 0.01 0.01 0.01 0.00 0.01 0.01 0.01 0.01 0.00 0.01 0.01 0.01 0.01 0.01 0.02 0.01 0.01 0.01 0.01 0.01 0.01 0.01 0.02 0.02 0.02 0.02 0.02 0.02 0.03 0.02 0.01 0.01 0.01
0.01 0.02 0.01 0.00 0.01 0.01 0.01 0.01 0.01 0.01 0.01 0.01 0.01 0.00 0.01 0.01 0.01 0.01 0.01 0.01 0.01 0.01 0.01 0.01 0.01 0.01 0.01 0.01 0.01 0.01 0.01 0.01 0.01 0.01 0.02 0.02 0.02 0.02 0.02 0.02 0.03 0.02 0.01 0.01
0.01 0.02 0.01 0.00 0.00 0.01 0.01 0.01 0.01 0.01 0.01 0.01 0.01 0.00 0.00 0.00 0.00 0.00 0.00 0.00 0.00 0.01 0.01 0.01 0.01 0.01 0.01 0.01 0.01 0.01 0.01 0.01 0.01 0.01 0.01 0.02 0.03 0.04 0.04 0.04 0.03 0.02 0.01 0.01
0.01 0.00 0.00 0.00 0.01 0.01 0.01 0.01 0.01 0.00 0.00 0.00 0.00 0.00 0.00 0.00 0.00 0.00 0.00 0.00 0.00 0.00 0.01 0.01 0.00 0.00 0.01 0.01 0.01 0.01 0.01 0.01 0.01 0.01 0.02 0.02 0.02 0.03 0.04 0.06 0.05 0.04 0.02 0.01
0.01 0.00 0.00 0.01 0.01 0.01 0.01 0.01 0.00 0.00 0.00 0.00 0.00 0.00 0.00 0.00 0.00 0.00 0.00 0.00 0.00 0.00 0.01 0.00 0.00 0.00 0.00 0.01 0.01 0.01 0.01 0.01 0.01 0.01 0.02 0.02 0.02 0.01 0.02 0.04 0.06 0.07 0.06 0.03
0.01 0.01 0.01 0.01 0.01 0.02 0.01 0.01 0.01 0.00 0.00 0.00 0.00 0.00 0.00 0.00 0.00 0.00 0.00 0.01 0.00 0.00 0.01 0.01 0.01 0.01 0.01 0.01 0.01 0.01 0.01 0.01 0.01 0.01 0.01 0.01 0.01 0.01 0.02 0.02 0.03 0.04 0.06 0.06
0.01 0.01 0.01 0.01 0.01 0.02 0.02 0.01 0.01 0.00 0.00 0.00 0.00 0.00 0.00 0.00 0.00 0.00 0.00 0.00 0.00 0.00 0.00 0.01 0.01 0.00 0.00 0.01 0.02 0.02 0.01 0.01 0.01 0.01 0.01 0.01 0.01 0.01 0.01 0.01 0.02 0.02 0.03 0.05
0.01 0.01 0.01 0.01 0.01 0.02 0.02 0.02 0.01 0.00 0.00 0.00 0.00 0.00 0.00 0.00 0.00 0.00 0.00 0.01 0.01 0.01 0.01 0.01 0.01 0.01 0.01 0.01 0.01 0.01 0.01 0.01 0.01 0.01 0.01 0.01 0.01 0.01 0.01 0.02 0.01 0.02 0.02 0.03
0.01 0.01 0.01 0.01 0.01 0.01 0.02 0.02 0.01 0.00 0.00 0.00 0.00 0.00 0.00 0.00 0.00 0.00 0.00 0.00 0.00 0.00 0.00 0.00 0.00 0.00 0.01 0.01 0.01 0.01 0.01 0.01 0.01 0.01 0.01 0.01 0.01 0.02 0.02 0.02 0.02 0.02 0.02 0.02
0.01 0.01 0.01 0.00 0.00 0.01 0.01 0.01 0.01 0.01 0.00 0.00 0.00 0.00 0.00 0.00 0.00 0.00 0.00 0.00 0.00 0.00 0.00 0.00 0.00 0.01 0.01 0.01 0.01 0.01 0.01 0.00 0.01 0.01 0.01 0.01 0.01 0.02 0.03 0.03 0.02 0.03 0.03 0.02
0.01 0.01 0.01 0.01 0.01 0.00 0.00 0.00 0.00 0.01 0.01 0.01 0.00 0.00 0.00 0.00 0.00 0.00 0.00 0.00 0.00 0.00 0.00 0.00 0.00 0.00 0.01 0.01 0.01 0.01 0.01 0.01 0.00 0.00 0.01 0.01 0.01 0.01 0.02 0.03 0.03 0.03 0.03 0.03
0.01 0.01 0.01 0.01 0.01 0.00 0.00 0.00 0.00 0.01 0.01 0.02 0.02 0.01 0.01 0.01 0.00 0.00 0.01 0.00 0.00 0.00 0.00 0.00 0.00 0.00 0.00 0.01 0.01 0.01 0.01 0.01 0.01 0.01 0.01 0.01 0.02 0.02 0.02 0.03 0.03 0.03 0.03 0.02
0.00 0.01 0.01 0.01 0.01 0.00 0.00 0.01 0.01 0.01 0.01 0.01 0.02 0.02 0.02 0.01 0.01 0.01 0.01 0.00 0.00 0.00 0.00 0.00 0.00 0.00 0.01 0.01 0.01 0.01 0.01 0.01 0.02 0.02 0.01 0.02 0.02 0.03 0.03 0.02 0.02 0.02 0.02 0.02
0.00 0.01 0.01 0.02 0.01 0.00 0.00 0.00 0.00 0.01 0.01 0.01 0.01 0.01 0.01 0.01 0.01 0.01 0.01 0.01 0.01 0.01 0.01 0.01 0.00 0.00 0.00 0.01 0.02 0.02 0.01 0.01 0.01 0.02 0.02 0.02 0.02 0.02 0.02 0.03 0.03 0.02 0.02 0.02
0.00 0.00 0.01 0.02 0.01 0.00 0.00 0.00 0.00 0.01 0.01 0.01 0.01 0.01 0.01 0.01 0.01 0.01 0.01 0.01 0.01 0.01 0.01 0.01 0.01 0.01 0.01 0.02 0.02 0.01 0.01 0.01 0.02 0.02 0.02 0.02 0.02 0.02 0.03 0.03 0.04 0.03 0.02 0.02
0.00 0.01 0.01 0.01 0.01 0.00 0.00 0.00 0.00 0.01 0.01 0.01 0.01 0.01 0.01 0.01 0.02 0.02 0.02 0.02 0.02 0.02 0.02 0.02 0.02 0.02 0.02 0.02 0.02 0.01 0.02 0.02 0.02 0.03 0.03 0.02 0.03 0.03 0.02 0.03 0.04 0.04 0.03 0.02
0.00 0.01 0.01 0.01 0.01 0.00 0.00 0.00 0.00 0.00 0.01 0.01 0.01 0.01 0.01 0.01 0.02 0.02 0.02 0.02 0.02 0.02 0.02 0.01 0.01 0.01 0.02 0.02 0.02 0.02 0.02 0.02 0.02 0.02 0.02 0.02 0.03 0.03 0.03 0.04 0.04 0.03 0.03 0.02
0.01 0.00 0.01 0.01 0.01 0.01 0.01 0.00 0.00 0.00 0.00 0.00 0.01 0.01 0.01 0.01 0.01 0.01 0.01 0.02 0.02 0.02 0.01 0.01 0.01 0.01 0.01 0.01 0.01 0.01 0.01 0.02 0.02 0.03 0.03 0.03 0.03 0.04 0.05 0.05 0.05 0.03 0.02 0.02
0.01 0.01 0.00 0.01 0.01 0.01 0.01 0.01 0.01 0.01 0.01 0.01 0.01 0.01 0.01 0.01 0.01 0.01 0.01 0.01 0.01 0.01 0.01 0.01 0.01 0.01 0.01 0.01 0.01 0.01 0.01 0.02 0.03 0.03 0.03 0.03 0.04 0.05 0.07 0.07 0.05 0.03 0.02 0.01
0.00 0.01 0.01 0.01 0.01 0.01 0.01 0.01 0.01 0.01 0.01 0.01 0.02 0.02 0.01 0.01 0.01 0.01 0.01 0.01 0.01 0.01 0.01 0.01 0.01 0.01 0.01 0.01 0.01 0.02 0.02 0.02 0.03 0.03 0.03 0.04 0.04 0.05 0.06 0.06 0.05 0.03 0.02 0.02
0.00 0.01 0.01 0.01 0.01 0.01 0.01 0.01 0.01 0.01 0.02 0.02 0.02 0.02 0.03 0.03 0.02 0.02 0.02 0.02 0.01 0.01 0.01 0.01 0.01 0.01 0.01 0.01 0.02 0.02 0.02 0.02 0.03 0.03 0.04 0.04 0.04 0.05 0.05 0.05 0.04 0.03 0.02 0.02
MSLP
1007.06 1006.54 1006.09 1005.72 1005.40 1005.13 1004.86 1004.58 1004.25 1003.88 1003.48 1003.08 1002.72 1002.43 1002.26 1002.21 1002.30 1002.50 1002.77 1003.10 1003.43 1003.74 1004.04 1004.32 1004.61 1004.94 1005.35 1005.86 1006.47 1007.16 1007.92 1008.69 1009.45 1010.16 1010.78 1011.31 1011.76 1012.16 1012.53 1012.91 1013.33 1013.81 1014.35 1014.94
1007.59 1007.03 1006.48 1005.97 1005.48 1005.02 1004.59 1004.17 1003.77 1003.38 1003.02 1002.72 1002.48 1002.32 1002.26 1002.28 1002.39 1002.54 1002.73 1002.93 1003.12 1003.30 1003.48 1003.68 1003.94 1004.28 1004.72 1005.29 1005.97 1006.75 1007.57 1008.41 1009.21 1009.95 1010.60 1011.15 1011.61 1012.01 1012.37 1012.74 1013.13 1013.57 1014.06 1014.60
1007.96 1007.41 1006.84 1006.25 1005.68 1005.12 1004.58 1004.09 1003.64 1003.25 1002.93 1002.68 1002.52 1002.43 1002.41 1002.43 1002.49 1002.55 1002.61 1002.65 1002.68 1002.71 1002.78 1002.91 1003.14 1003.50 1004.00 1004.65 1005.42 1006.28 1007.18 1008.08 1008.94 1009.71 1010.38 1010.95 1011.42 1011.83 1012.20 1012.57 1012.94 1013.35 1013.80 1014.30
1008.23 1007.72 1007.16 1006.58 1005.98 1005.39 1004.82 1004.30 1003.84 1003.46 1003.16 1002.95 1002.81 1002.73 1002.69 1002.65 1002.61 1002.54 1002.43 1002.30 1002.16 1002.06 1002.02 1002.09 1002.31 1002.69 1003.24 1003.97 1004.82 1005.76 1006.74 1007.69 1008.59 1009.40 1010.10 1010.69 1011.18 1011.61 1011.99 1012.36 1012.74 1013.14 1013.57 1014.02
1008.43 1007.98 1007.47 1006.93 1006.36 1005.79 1005.24 1004.73 1004.28 1003.91 1003.63 1003.42 1003.27 1003.15 1003.04 1002.91 1002.74 1002.52 1002.24 1001.94 1001.65 1001.42 1001.29 1001.30 1001.50 1001.90 1002.50 1003.28 1004.20 1005.20 1006.23 1007.24 1008.17 1009.01 1009.72 1010.34 1010.85 1011.30 1011.71 1012.11 1012.50 1012.91 1013.33 1013.77
1008.60 1008.21 1007.78 1007.30 1006.79 1006.26 1005.74 1005.26 1004.84 1004.48 1004.19 1003.97 1003.78 1003.61 1003.41 1003.17 1002.86 1002.49 1002.06 1001.62 1001.19 1000.85 1000.63 1000.60 1000.78 1001.19 1001.81 1002.63 1003.59 1004.63 1005.69 1006.72 1007.67 1008.53 1009.27 1009.90 1010.45 1010.93 1011.37 1011.80 1012.22 1012.65 1013.08 1013.52
1008.75 1008.41 1008.04 1007.63 1007.18 1006.71 1006.24 1005.80 1005.39 1005.04 1004.74 1004.48 1004.24 1004.00 1003.71 1003.37 1002.94 1002.44 1001.89 1001.33 1000.80 1000.37 1000.10 1000.02 1000.18 1000.58 1001.21 1002.04 1003.01 1004.06 1005.13 1006.16 1007.13 1007.99 1008.75 1009.41 1009.98 1010.50 1010.99 1011.45 1011.91 1012.36 1012.81 1013.26
1008.85 1008.55 1008.23 1007.87 1007.48 1007.06 1006.63 1006.21 1005.82 1005.46 1005.14 1004.84 1004.55 1004.24 1003.88 1003.45 1002.94 1002.35 1001.72 1001.08 1000.49 1000.01 999.69 999.58 999.71 1000.10 1000.71 1001.53 1002.48 1003.52 1004.58 1005.61 1006.57 1007.45 1008.22 1008.90 1009.50 1010.05 1010.57 1011.07 1011.56 1012.04 1012.52 1012.98
1008.84 1008.58 1008.29 1007.97 1007.62 1007.24 1006.84 1006.44 1006.04 1005.67 1005.32 1004.99 1004.65 1004.29 1003.87 1003.38 1002.82 1002.20 1001.52 1000.85 1000.23 999.73 999.38 999.26 999.37 999.72 1000.31 1001.10 1002.03 1003.04 1004.08 1005.10 1006.05 1006.93 1007.71 1008.41 1009.04 1009.62 1010.16 1010.69 1011.21 1011.71 1012.20 1012.68
1008.70 1008.45 1008.19 1007.90 1007.58 1007.22 1006.83 1006.43 1006.03 1005.64 1005.26 1004.89 1004.52 1004.12 1003.68 1003.17 1002.60 1001.97 1001.30 1000.63 1000.02 999.51 999.17 999.03 999.12 999.45 1000.00 1000.75 1001.65 1002.63 1003.64 1004.65 1005.60 1006.47 1007.27 1007.98 1008.63 1009.22 1009.78 1010.33 1010.85 1011.37 1011.87 1012.36
1008.38 1008.16 1007.92 1007.66 1007.35 1007.01 1006.62 1006.22 1005.80 1005.39 1004.99 1004.59 1004.19 1003.78 1003.34 1002.84 1002.28 1001.68 1001.05 1000.41 999.83 999.35 999.02 998.87 998.95 999.25 999.76 1000.48 1001.33 1002.28 1003.28 1004.26 1005.21 1006.09 1006.89 1007.61 1008.27 1008.88 1009.44 1009.99 1010.51 1011.03 1011.54 1012.04
1007.91 1007.71 1007.51 1007.27 1006.98 1006.65 1006.27 1005.86 1005.43 1005.00 1004.57 1004.16 1003.76 1003.35 1002.92 1002.45 1001.94 1001.38 1000.80 1000.22 999.68 999.23 998.91 998.76 998.82 999.09 999.57 1000.24 1001.06 1001.98 1002.95 1003.93 1004.87 1005.75 1006.56 1007.30 1007.96 1008.56 1009.13 1009.66 1010.18 1010.70 1011.20 1011.71
1007.33 1007.18 1007.01 1006.80 1006.55 1006.23 1005.86 1005.44 1005.01 1004.56 1004.13 1003.71 1003.31 1002.91 1002.51 1002.08 1001.61 1001.11 1000.59 1000.06 999.56 999.14 998.83 998.68 998.71 998.95 999.39 1000.02 1000.80 1001.68 1002.63 1003.60 1004.54 1005.42 1006.24 1006.98 1007.64 1008.24 1008.80 1009.33 1009.84 1010.36 1010.87 1011.39
1006.73 1006.62 1006.50 1006.34 1006.12 1005.83 1005.47 1005.07 1004.63 1004.19 1003.75 1003.34 1002.94 1002.56 1002.19 1001.79 1001.37 1000.92 1000.44 999.95 999.48 999.07 998.76 998.59 998.60 998.79 999.18 999.76 1000.49 1001.35 1002.27 1003.22 1004.16 1005.04 1005.86 1006.61 1007.27 1007.88 1008.43 1008.96 1009.47 1009.99 1010.52 1011.07
1006.16 1006.11 1006.06 1005.95 1005.77 1005.51 1005.18 1004.79 1004.37 1003.93 1003.50 1003.09 1002.71 1002.34 1001.99 1001.63 1001.24 1000.82 1000.37 999.90 999.44 999.02 998.69 998.49 998.45 998.58 998.92 999.44 1000.12 1000.93 1001.83 1002.76 1003.69 1004.57 1005.40 1006.14 1006.82 1007.43 1007.99 1008.52 1009.05 1009.59 1010.15 1010.73
1005.68 1005.71 1005.71 1005.66 1005.53 1005.31 1005.01 1004.64 1004.23 1003.80 1003.38 1002.98 1002.61 1002.26 1001.92 1001.57 1001.20 1000.79 1000.34 999.87 999.40 998.96 998.59 998.34 998.24 998.31 998.58 999.04 999.67 1000.43 1001.29 1002.20 1003.11 1004.00 1004.82 1005.58 1006.26 1006.88 1007.45 1008.01 1008.56 1009.13 1009.72 1010.35
1005.33 1005.42 1005.48 1005.48 1005.39 1005.21 1004.93 1004.59 1004.19 1003.78 1003.37 1002.97 1002.61 1002.26 1001.92 1001.57 1001.19 1000.78 1000.32 999.82 999.32 998.84 998.42 998.11 997.95 997.96 998.16 998.56 999.13 999.85 1000.68 1001.56 1002.46 1003.34 1004.16 1004.92 1005.61 1006.25 1006.84 1007.41 1007.99 1008.59 1009.23 1009.90
1005.09 1005.23 1005.34 1005.38 1005.32 1005.16 1004.91 1004.58 1004.20 1003.79 1003.39 1003.00 1002.63 1002.28 1001.93 1001.56 1001.16 1000.72 1000.23 999.70 999.16 998.63 998.16 997.80 997.57 997.52 997.67 998.02 998.54 999.22 1000.02 1000.88 1001.77 1002.64 1003.46 1004.23 1004.92 1005.57 1006.17 1006.76 1007.36 1007.99 1008.66 1009.37
1004.93 1005.11 1005.24 1005.29 1005.25 1005.10 1004.86 1004.54 1004.16 1003.77 1003.36 1002.97 1002.60 1002.23 1001.86 1001.47 1001.04 1000.56 1000.03 999.46 998.87 998.29 997.78 997.37 997.10 997.01 997.12 997.43 997.93 998.59 999.36 1000.21 1001.09 1001.96 1002.78 1003.54 1004.24 1004.89 1005.50 1006.09 1006.70 1007.33 1008.01 1008.74
1004.81 1004.99 1005.12 1005.17 1005.12 1004.97 1004.73 1004.41 1004.04 1003.64 1003.24 1002.84 1002.45 1002.07 1001.67 1001.25 1000.78 1000.26 999.68 999.07 998.44 997.83 997.28 996.84 996.55 996.44 996.53 996.83 997.32 997.97 998.74 999.59 1000.47 1001.33 1002.16 1002.92 1003.62 1004.26 1004.86 1005.44 1006.03 1006.65 1007.32 1008.03
1004.68 1004.84 1004.95 1004.98 1004.91 1004.74 1004.48 1004.16 1003.80 1003.40 1003.00 1002.60 1002.20 1001.80 1001.37 1000.91 1000.40 999.83 999.21 998.55 997.89 997.25 996.68 996.23 995.93 995.82 995.92 996.22 996.73 997.39 998.17 999.03 999.91 1000.79 1001.61 1002.37 1003.06 1003.69 1004.27 1004.82 1005.38 1005.97 1006.60 1007.28
1004.49 1004.63 1004.70 1004.69 1004.60 1004.41 1004.15 1003.83 1003.47 1003.08 1002.69 1002.29 1001.88 1001.46 1001.00 1000.50 999.95 999.33 998.67 997.97 997.27 996.60 996.02 995.56 995.27 995.17 995.28 995.61 996.13 996.81 997.62 998.49 999.39 1000.28 1001.11 1001.86 1002.55 1003.15 1003.71 1004.24 1004.76 1005.30 1005.88 1006.51
1004.24 1004.34 1004.37 1004.33 1004.20 1004.01 1003.75 1003.44 1003.10 1002.74 1002.36 1001.98 1001.57 1001.13 1000.65 1000.11 999.51 998.85 998.13 997.39 996.65 995.95 995.35 994.88 994.59 994.50 994.63 994.97 995.51 996.21 997.03 997.93 998.84 999.74 1000.57 1001.33 1002.01 1002.61 1003.15 1003.65 1004.13 1004.63 1005.17 1005.75
1003.91 1003.97 1003.97 1003.90 1003.77 1003.58 1003.34 1003.06 1002.76 1002.44 1002.10 1001.74 1001.34 1000.90 1000.40 999.83 999.18 998.46 997.69 996.89 996.10 995.36 994.73 994.24 993.93 993.83 993.95 994.29 994.84 995.54 996.37 997.27 998.19 999.09 999.94 1000.71 1001.39 1001.99 1002.52 1003.01 1003.48 1003.95 1004.45 1005.00
1003.50 1003.53 1003.51 1003.43 1003.31 1003.15 1002.95 1002.73 1002.49 1002.24 1001.95 1001.63 1001.26 1000.83 1000.31 999.71 999.02 998.25 997.42 996.55 995.70 994.91 994.22 993.68 993.33 993.19 993.28 993.59 994.11 994.79 995.59 996.48 997.39 998.29 999.14 999.92 1000.61 1001.22 1001.77 1002.27 1002.75 1003.22 1003.72 1004.25
1003.02 1003.03 1003.00 1002.94 1002.86 1002.74 1002.61 1002.47 1002.31 1002.13 1001.92 1001.66 1001.33 1000.92 1000.40 999.78 999.06 998.24 997.35 996.43 995.51 994.64 993.88 993.27 992.85 992.65 992.66 992.91 993.36 993.98 994.73 995.57 996.45 997.33 998.17 998.95 999.66 1000.30 1000.88 1001.41 1001.91 1002.41 1002.93 1003.47
1002.46 1002.47 1002.46 1002.43 1002.39 1002.35 1002.30 1002.25 1002.18 1002.10 1001.97 1001.78 1001.51 1001.13 1000.64 1000.02 999.28 998.43 997.50 996.52 995.54 994.61 993.77 993.09 992.58 992.28 992.20 992.34 992.69 993.22 993.88 994.65 995.46 996.29 997.10 997.88 998.59 999.25 999.86 1000.43 1000.98 1001.52 1002.07 1002.63
Thickness
5647 5652 5654 5655 5657 5655 5652 5648 5643 5651 5653 5662 5666 5668 5669 5669 5668 5668 5667 5666 5665 5664 5663 5662 5660 5658 5656 5654 5652 5650 5647 5644 5642 5640 5638 5636 5634 5632 5630 5628 5627 5625 5622 5621
5641 5647 5646 5647 5651 5652 5651 5650 5648 5650 5652 5661 5662 5661 5661 5661 5662 5661 5661 5661 5661 5660 5659 5658 5656 5653 5651 5649 5647 5645 5642 5640 5638 5635 5633 5631 5629 5627 5625 5623 5621 5619 5617 5616
5624 5635 5640 5634 5645 5648 5648 5649 5649 5646 5652 5656 5655 5656 5656 5657 5657 5657 5657 5657 5656 5655 5655 5654 5652 5650 5647 5645 5643 5640 5637 5635 5632 5630 5628 5627 5625 5622 5620 5618 5616 5614 5613 5611
5613 5623 5618 5635 5649 5650 5647 5647 5647 5649 5652 5651 5653 5654 5654 5654 5653 5652 5652 5652 5652 5651 5651 5649 5648 5646 5643 5640 5637 5635 5632 5630 5627 5625 5623 5621 5619 5617 5615 5613 5611 5609 5608 5607
5601 5605 5614 5630 5641 5641 5639 5640 5646 5644 5646 5645 5646 5646 5646 5650 5650 5648 5648 5648 5648 5647 5647 5645 5643 5641 5638 5635 5632 5630 5627 5625 5624 5622 5619 5616 5614 5611 5609 5607 5605 5604 5603 5602
5595 5600 5604 5623 5638 5642 5637 5630 5642 5640 5639 5638 5637 5630 5636 5645 5645 5644 5644 5644 5643 5642 5641 5639 5638 5636 5633 5630 5627 5625 5623 5621 5619 5617 5615 5612 5609 5607 5604 5602 5600 5599 5597 5597
5591 5593 5603 5620 5629 5632 5617 5620 5635 5634 5633 5631 5629 5631 5636 5638 5638 5638 5638 5638 5638 5637 5635 5634 5632 5630 5627 5624 5622 5621 5619 5616 5613 5611 5609 5607 5604 5601 5598 5596 5594 5592 5591 5590
5584 5585 5596 5619 5618 5614 5615 5623 5626 5626 5626 5626 5626 5628 5629 5630 5631 5632 5631 5632 5631 5629 5628 5627 5626 5623 5620 5619 5618 5615 5612 5609 5607 5605 5604 5602 5598 5595 5592 5590 5588 5586 5585 5583
5591 5596 5606 5610 5611 5615 5615 5616 5618 5618 5620 5621 5620 5620 5622 5622 5623 5624 5625 5624 5623 5621 5620 5619 5618 5617 5614 5614 5612 5609 5605 5603 5600 5599 5597 5595 5591 5588 5585 5583 5581 5580 5579 5578
5585 5593 5600 5603 5606 5609 5610 5611 5613 5614 5614 5614 5612 5613 5614 5614 5615 5616 5616 5615 5614 5612 5611 5611 5611 5610 5609 5608 5606 5603 5599 5596 5593 5591 5589 5588 5586 5583 5580 5578 5576 5575 5574 5572
5579 5588 5593 5599 5599 5601 5603 5604 5605 5606 5607 5607 5607 5607 5607 5607 5608 5608 5608 5607 5606 5604 5603 5603 5603 5602 5602 5601 5599 5595 5592 5590 5587 5585 5582 5580 5579 5577 5575 5574 5572 5571 5570 5568
5577 5585 5584 5589 5594 5595 5595 5596 5597 5598 5599 5600 5601 5601 5601 5600 5600 5600 5599 5599 5598 5597 5597 5596 5596 5595 5595 5593 5591 5588 5585 5582 5580 5578 5576 5574 5571 5570 5569 5568 5567 5566 5565 5564
5580 5584 5583 5586 5587 5588 5588 5589 5591 5591 5593 5593 5594 5594 5594 5593 5593 5592 5592 5591 5591 5591 5590 5590 5589 5588 5588 5586 5584 5581 5579 5576 5574 5572 5570 5567 5565 5563 5561 5560 5559 5559 5558 5557
5575 5575 5575 5578 5579 5581 5581 5582 5583 5584 5585 5585 5586 5586 5586 5586 5585 5585 5585 5585 5584 5583 5583 5582 5582 5581 5581 5579 5577 5574 5572 5571 5568 5565 5563 5561 5558 5556 5555 5553 5551 5550 5550 5549
5568 5568 5569 5572 5572 5572 5573 5573 5573 5574 5576 5576 5577 5578 5578 5577 5577 5578 5578 5577 5576 5575 5575 5575 5574 5574 5573 5572 5569 5567 5565 5563 5560 5558 5555 5554 5551 5549 5547 5545 5543 5542 5540 5540
5561 5562 5562 5563 5564 5565 5565 5565 5566 5567 5568 5569 5569 5569 5570 5570 5570 5569 5569 5569 5568 5567 5568 5568 5567 5567 5566 5564 5561 5559 5557 5556 5554 5551 5548 5546 5544 5542 5540 5538 5536 5534 5532 5531
5552 5552 5553 5554 5557 5558 5559 5560 5560 5561 5561 5561 5562 5562 5562 5561 5560 5560 5561 5561 5560 5561 5560 5560 5560 5559 5558 5556 5554 5551 5549 5548 5547 5544 5541 5539 5537 5535 5533 5531 5529 5527 5525 5525
5549 5549 5549 5549 5550 5551 5552 5553 5554 5554 5555 5556 5555 5554 5554 5553 5553 5553 5553 5552 5551 5551 5552 5552 5552 5551 5550 5548 5545 5543 5541 5539 5537 5535 5533 5531 5529 5527 5524 5523 5521 5519 5518 5516
5543 5543 5544 5544 5544 5544 5544 5545 5546 5547 5548 5548 5547 5547 5547 5547 5546 5545 5544 5543 5543 5543 5544 5544 5545 5543 5541 5539 5537 5534 5532 5530 5528 5526 5524 5522 5520 5517 5515 5514 5512 5511 5509 5507
5536 5537 5537 5537 5537 5537 5537 5538 5538 5539 5540 5539 5539 5539 5538 5539 5538 5537 5536 5535 5536 5537 5537 5536 5535 5534 5532 5531 5529 5526 5523 5521 5519 5517 5514 5512 5510 5508 5507 5505 5504 5503 5502 5500
5528 5529 5529 5529 5529 5529 5529 5530 5530 5530 5531 5531 5531 5531 5531 5531 5530 5528 5527 5527 5528 5528 5527 5528 5526 5525 5523 5522 5520 5517 5514 5512 5509 5507 5505 5503 5501 5499 5498 5497 5496 5495 5493 5492
5520 5520 5520 5520 5520 5520 5521 5521 5521 5522 5522 5522 5522 5522 5521 5519 5519 5519 5519 5519 5520 5520 5518 5518 5517 5516 5515 5514 5511 5507 5505 5503 5500 5498 5496 5494 5492 5491 5490 5489 5488 5487 5486 5484
5511 5511 5511 5511 5511 5511 5512 5512 5513 5513 5514 5513 5512 5512 5511 5511 5510 5509 5510 5510 5510 5510 5509 5508 5509 5509 5507 5504 5500 5498 5495 5493 5491 5489 5487 5486 5484 5483 5482 5481 5481 5479 5478 5477
5504 5504 5504 5503 5503 5503 5503 5504 5504 5504 5505 5504 5504 5503 5502 5501 5501 5501 5502 5502 5502 5501 5500 5499 5499 5499 5496 5492 5490 5487 5485 5484 5482 5481 5479 5477 5476 5475 5474 5474 5473 5472 5471 5470
5497 5497 5496 5495 5494 5494 5495 5495 5494 5494 5494 5494 5494 5494 5494 5493 5492 5492 5492 5492 5493 5493 5491 5490 5490 5488 5485 5483 5480 5478 5476 5475 5473 5472 5471 5469 5468 5468 5467 5467 5466 5465 5464 5462
5490 5489 5488 5487 5487 5486 5486 5486 5485 5485 5484 5484 5484 5484 5484 5484 5484 5483 5483 5483 5483 5483 5481 5480 5479 5478 5475 5473 5471 5469 5468 5467 5465 5464 5462 5462 5461 5461 5460 5459 5459 5458 5457 5456
5482 5481 5480 5479 5479 5479 5478 5478 5478 5477 5476 5475 5475 5475 5475 5475 5475 5474 5474 5473 5472 5471 5470 5469 5468 5467 5466 5464 5462 5461 5459 5458 5457 5456 5455 5454 5454 5453 5453 5452 5452 5451 5450 5449